Time,TemperatureF,DewpointF,PressureIn,WindDirection,WindDirectionDegrees,WindSpeedMPH,WindSpeedGustMPH,Humidity,HourlyPrecipIn,Conditions,Clouds,dailyrainin,SoftwareType,DateUTC
2013-08-24 00:24:00,66.0,64.0,-100.00,ENE,75,0.0,0.0,91,0.00,,,-99.99,,2013-08-24 04:24:00,
2013-08-24 00:53:00,66.0,64.0,-100.00,NE,50,0.0,0.0,92,0.00,,,-99.99,,2013-08-24 04:53:00,
2013-08-24 01:23:00,66.0,63.0,-100.00,NE,45,0.0,0.0,92,0.00,,,-99.99,,2013-08-24 05:23:00,
2013-08-24 04:22:00,63.0,62.0,-100.00,NNE,25,0.0,0.0,93,0.00,,,-99.99,,2013-08-24 08:22:00,
2013-08-24 05:22:00,63.0,61.0,-100.00,East,90,0.0,0.0,93,0.00,,,-99.99,,2013-08-24 09:22:00,
2013-08-24 05:53:00,62.0,60.0,-100.00,East,95,0.0,0.0,93,0.00,,,-99.99,,2013-08-24 09:53:00,
2013-08-24 06:53:00,62.0,60.0,-100.00,SW,220,0.0,0.0,94,0.00,,,-99.99,,2013-08-24 10:53:00,
2013-08-24 07:22:00,61.0,59.0,-100.00,NE,45,0.0,0.0,94,0.00,,,-99.99,,2013-08-24 11:22:00,
2013-08-24 07:52:00,61.0,60.0,-100.00,NE,35,0.0,0.0,94,0.00,,,-99.99,,2013-08-24 11:52:00,
2013-08-24 10:22:00,74.0,66.0,-100.00,East,85,1.0,3.0,76,0.00,,,-99.99,,2013-08-24 14:22:00,
2013-08-24 10:52:00,76.0,65.0,-100.00,SSW,200,2.0,4.0,70,0.00,,,-99.99,,2013-08-24 14:52:00,
2013-08-24 11:22:00,77.0,63.0,-100.00,SSW,205,1.0,4.0,61,0.00,,,-99.99,,2013-08-24 15:22:00,
2013-08-24 12:23:00,81.0,60.0,-100.00,SW,220,1.0,4.0,49,0.00,,,-99.99,,2013-08-24 16:23:00,
2013-08-24 13:23:00,83.0,57.0,-100.00,East,100,1.0,7.0,41,0.00,,,-99.99,,2013-08-24 17:23:00,
2013-08-24 13:52:00,84.0,57.0,-100.00,SE,145,2.0,6.0,39,0.00,,,-99.99,,2013-08-24 17:52:00,
2013-08-24 15:52:00,86.0,55.0,-100.00,ENE,60,1.0,7.0,35,0.00,,,-99.99,,2013-08-24 19:52:00,
2013-08-24 16:22:00,87.0,58.0,-100.00,East,85,1.0,5.0,38,0.00,,,-99.99,,2013-08-24 20:22:00,
2013-08-24 16:52:00,88.0,56.0,-100.00,East,85,1.0,7.0,33,0.00,,,-99.99,,2013-08-24 20:52:00,
2013-08-24 17:54:00,87.0,58.0,-100.00,NE,50,1.0,4.0,38,0.00,,,-99.99,,2013-08-24 21:54:00,
2013-08-24 18:24:00,81.0,62.0,-100.00,North,5,0.0,2.0,52,0.00,,,-99.99,,2013-08-24 22:24:00,
2013-08-24 18:53:00,84.0,60.0,-100.00,ESE,110,1.0,5.0,44,0.00,,,-99.99,,2013-08-24 22:53:00,
2013-08-24 19:22:00,82.0,62.0,-100.00,NNE,30,0.0,2.0,50,0.00,,,-99.99,,2013-08-24 23:22:00,
2013-08-24 19:53:00,77.0,63.0,-100.00,NE,55,0.0,0.0,61,0.00,,,-99.99,,2013-08-24 23:53:00,
2013-08-24 23:23:00,64.0,61.0,-100.00,ENE,75,0.0,0.0,91,0.00,,,-99.99,,2013-08-25 03:23:00,
2013-08-24 23:54:00,63.0,61.0,-100.00,ENE,65,0.0,1.0,91,0.00,,,-99.99,,2013-08-25 03:54:00,